QPF
0.00 0.00 0.00 0.00 0.00 0.00 0.00 0.01 0.02 0.01 0.01 0.00 0.00 0.00 0.00 0.01 0.02 0.01 0.01 0.01 0.01 0.01 0.01 0.01 0.01 0.01 0.05 0.09 0.06 0.05 0.06 0.06 0.05 0.04 0.04 0.06 0.07 0.07
0.00 0.00 0.00 0.00 0.00 0.00 0.00 0.00 0.01 0.01 0.01 0.00 0.00 0.00 0.00 0.00 0.01 0.01 0.01 0.01 0.01 0.01 0.02 0.02 0.01 0.02 0.06 0.10 0.07 0.04 0.05 0.05 0.04 0.04 0.04 0.05 0.06 0.06
0.00 0.00 0.00 0.00 0.00 0.00 0.00 0.00 0.00 0.01 0.02 0.01 0.00 0.00 0.01 0.01 0.00 0.01 0.01 0.01 0.01 0.01 0.02 0.02 0.02 0.03 0.06 0.10 0.08 0.05 0.05 0.04 0.04 0.04 0.05 0.06 0.06 0.07
0.00 0.00 0.00 0.00 0.00 0.00 0.00 0.00 0.00 0.01 0.02 0.02 0.01 0.01 0.01 0.01 0.01 0.01 0.01 0.02 0.02 0.02 0.02 0.02 0.02 0.03 0.06 0.10 0.09 0.05 0.05 0.03 0.04 0.05 0.05 0.06 0.06 0.05
0.00 0.00 0.00 0.00 0.00 0.00 0.00 0.00 0.01 0.01 0.02 0.02 0.02 0.02 0.01 0.01 0.01 0.01 0.02 0.03 0.03 0.03 0.02 0.02 0.03 0.04 0.06 0.08 0.07 0.04 0.03 0.03 0.03 0.04 0.05 0.04 0.04 0.04
0.00 0.00 0.00 0.00 0.00 0.01 0.01 0.01 0.01 0.01 0.01 0.01 0.02 0.02 0.02 0.01 0.01 0.01 0.03 0.04 0.04 0.03 0.03 0.03 0.03 0.03 0.05 0.06 0.04 0.03 0.02 0.02 0.03 0.03 0.03 0.03 0.03 0.05
0.00 0.00 0.00 0.00 0.00 0.01 0.01 0.01 0.01 0.01 0.02 0.02 0.02 0.01 0.01 0.02 0.02 0.02 0.04 0.05 0.03 0.02 0.03 0.04 0.03 0.04 0.04 0.03 0.03 0.03 0.03 0.03 0.03 0.04 0.04 0.04 0.05 0.06
0.00 0.00 0.00 0.00 0.00 0.00 0.01 0.01 0.01 0.02 0.02 0.03 0.02 0.02 0.02 0.02 0.03 0.04 0.05 0.05 0.04 0.03 0.04 0.04 0.03 0.03 0.03 0.02 0.03 0.03 0.04 0.03 0.04 0.05 0.06 0.05 0.06 0.06
0.00 0.00 0.00 0.00 0.00 0.00 0.00 0.01 0.01 0.01 0.01 0.02 0.03 0.02 0.03 0.04 0.06 0.05 0.05 0.04 0.04 0.03 0.03 0.03 0.02 0.02 0.03 0.03 0.03 0.03 0.03 0.03 0.04 0.05 0.06 0.05 0.05 0.05
0.00 0.00 0.00 0.00 0.00 0.01 0.01 0.01 0.00 0.00 0.00 0.01 0.02 0.02 0.03 0.05 0.07 0.07 0.06 0.05 0.04 0.03 0.03 0.04 0.03 0.03 0.03 0.03 0.03 0.03 0.03 0.03 0.03 0.04 0.04 0.04 0.04 0.04
0.00 0.00 0.00 0.00 0.01 0.01 0.01 0.01 0.01 0.00 0.01 0.01 0.01 0.02 0.03 0.05 0.06 0.06 0.06 0.06 0.04 0.03 0.03 0.03 0.03 0.03 0.03 0.03 0.03 0.04 0.04 0.03 0.03 0.03 0.04 0.04 0.05 0.05
0.00 0.00 0.00 0.01 0.01 0.01 0.01 0.02 0.02 0.01 0.01 0.01 0.01 0.02 0.03 0.04 0.05 0.05 0.05 0.06 0.05 0.04 0.03 0.03 0.03 0.03 0.03 0.03 0.03 0.04 0.03 0.03 0.03 0.03 0.03 0.04 0.04 0.04
0.00 0.00 0.00 0.01 0.01 0.01 0.01 0.02 0.02 0.02 0.02 0.01 0.01 0.02 0.03 0.04 0.04 0.05 0.05 0.06 0.06 0.05 0.04 0.04 0.03 0.02 0.03 0.03 0.03 0.03 0.03 0.03 0.03 0.03 0.03 0.03 0.04 0.04
0.01 0.01 0.01 0.01 0.01 0.01 0.01 0.02 0.02 0.02 0.01 0.01 0.02 0.03 0.04 0.04 0.05 0.05 0.05 0.05 0.05 0.04 0.03 0.03 0.03 0.02 0.03 0.02 0.03 0.03 0.03 0.03 0.02 0.02 0.02 0.02 0.03 0.03
0.01 0.01 0.01 0.01 0.01 0.01 0.01 0.02 0.01 0.01 0.01 0.02 0.02 0.03 0.05 0.06 0.05 0.05 0.04 0.04 0.04 0.03 0.03 0.03 0.02 0.02 0.03 0.03 0.03 0.03 0.02 0.03 0.02 0.02 0.02 0.02 0.02 0.02
0.00 0.00 0.00 0.01 0.01 0.01 0.01 0.01 0.01 0.01 0.01 0.02 0.03 0.04 0.05 0.05 0.05 0.04 0.04 0.03 0.03 0.04 0.03 0.03 0.02 0.02 0.03 0.03 0.03 0.03 0.02 0.03 0.03 0.02 0.02 0.02 0.02 0.02
0.00 0.00 0.00 0.00 0.01 0.01 0.01 0.01 0.01 0.01 0.02 0.02 0.03 0.04 0.05 0.05 0.05 0.05 0.03 0.03 0.03 0.03 0.03 0.03 0.02 0.02 0.02 0.02 0.02 0.02 0.02 0.03 0.03 0.03 0.02 0.02 0.02 0.02
0.01 0.00 0.00 0.00 0.01 0.02 0.02 0.02 0.01 0.02 0.02 0.03 0.04 0.04 0.05 0.04 0.04 0.03 0.03 0.02 0.03 0.02 0.02 0.02 0.02 0.02 0.01 0.01 0.02 0.02 0.02 0.02 0.02 0.02 0.02 0.02 0.02 0.02
0.00 0.00 0.00 0.01 0.01 0.02 0.02 0.02 0.02 0.03 0.03 0.04 0.05 0.04 0.04 0.04 0.03 0.02 0.02 0.02 0.02 0.02 0.01 0.01 0.02 0.02 0.01 0.02 0.02 0.02 0.03 0.03 0.02 0.02 0.02 0.02 0.03 0.03
0.02 0.02 0.01 0.01 0.01 0.02 0.02 0.03 0.03 0.03 0.04 0.05 0.05 0.03 0.03 0.03 0.02 0.02 0.02 0.01 0.02 0.02 0.01 0.01 0.02 0.03 0.03 0.03 0.03 0.03 0.03 0.03 0.03 0.02 0.02 0.02 0.03 0.03
0.02 0.03 0.04 0.04 0.04 0.04 0.04 0.04 0.04 0.04 0.05 0.06 0.05 0.03 0.03 0.02 0.02 0.02 0.02 0.02 0.02 0.02 0.02 0.02 0.02 0.03 0.02 0.02 0.03 0.04 0.03 0.03 0.03 0.03 0.02 0.02 0.02 0.03
0.02 0.02 0.03 0.03 0.04 0.04 0.05 0.06 0.06 0.06 0.06 0.07 0.06 0.04 0.03 0.02 0.02 0.02 0.02 0.02 0.02 0.02 0.02 0.02 0.02 0.02 0.02 0.03 0.04 0.04 0.04 0.03 0.03 0.02 0.02 0.01 0.02 0.04
0.02 0.02 0.02 0.02 0.03 0.03 0.04 0.04 0.05 0.05 0.06 0.06 0.05 0.04 0.03 0.03 0.02 0.02 0.02 0.02 0.02 0.03 0.03 0.02 0.02 0.02 0.02 0.03 0.03 0.04 0.04 0.03 0.03 0.03 0.03 0.02 0.02 0.03
MSLP
1023.52 1023.88 1024.21 1024.50 1024.74 1024.90 1025.00 1025.05 1025.05 1025.04 1025.02 1025.00 1024.97 1024.90 1024.76 1024.53 1024.19 1023.71 1023.11 1022.39 1021.58 1020.72 1019.82 1018.91 1017.99 1017.04 1016.05 1014.97 1013.77 1012.42 1010.92 1009.27 1007.49 1005.60 1003.67 1001.73 999.83 998.03
1023.40 1023.85 1024.26 1024.62 1024.91 1025.10 1025.21 1025.25 1025.24 1025.19 1025.13 1025.06 1024.98 1024.86 1024.69 1024.43 1024.07 1023.58 1022.97 1022.26 1021.47 1020.63 1019.76 1018.87 1017.98 1017.07 1016.11 1015.08 1013.94 1012.68 1011.27 1009.73 1008.06 1006.29 1004.47 1002.63 1000.82 999.06
1023.14 1023.69 1024.19 1024.63 1024.98 1025.22 1025.37 1025.43 1025.42 1025.36 1025.28 1025.17 1025.05 1024.90 1024.69 1024.40 1024.01 1023.51 1022.90 1022.19 1021.40 1020.57 1019.71 1018.85 1017.98 1017.10 1016.19 1015.22 1014.16 1012.98 1011.68 1010.26 1008.72 1007.09 1005.40 1003.67 1001.94 1000.23
1022.75 1023.38 1023.98 1024.50 1024.92 1025.24 1025.44 1025.55 1025.56 1025.52 1025.44 1025.33 1025.19 1025.01 1024.77 1024.46 1024.04 1023.53 1022.90 1022.19 1021.40 1020.57 1019.73 1018.88 1018.04 1017.19 1016.31 1015.40 1014.40 1013.32 1012.13 1010.83 1009.42 1007.93 1006.38 1004.77 1003.14 1001.49
1022.26 1022.97 1023.64 1024.24 1024.75 1025.14 1025.42 1025.58 1025.65 1025.65 1025.60 1025.50 1025.36 1025.18 1024.93 1024.60 1024.18 1023.65 1023.02 1022.30 1021.51 1020.69 1019.85 1019.01 1018.17 1017.34 1016.50 1015.63 1014.70 1013.69 1012.60 1011.41 1010.14 1008.78 1007.36 1005.87 1004.35 1002.79
1021.72 1022.48 1023.21 1023.88 1024.47 1024.93 1025.29 1025.53 1025.67 1025.72 1025.72 1025.66 1025.54 1025.37 1025.14 1024.81 1024.39 1023.86 1023.24 1022.53 1021.75 1020.93 1020.09 1019.26 1018.43 1017.61 1016.79 1015.94 1015.05 1014.11 1013.09 1012.00 1010.84 1009.60 1008.30 1006.94 1005.53 1004.08
1021.15 1021.94 1022.72 1023.45 1024.09 1024.63 1025.05 1025.37 1025.58 1025.71 1025.76 1025.76 1025.69 1025.56 1025.35 1025.05 1024.66 1024.16 1023.55 1022.86 1022.10 1021.30 1020.48 1019.65 1018.82 1018.01 1017.19 1016.35 1015.49 1014.58 1013.62 1012.60 1011.52 1010.39 1009.20 1007.96 1006.67 1005.34
1020.57 1021.38 1022.19 1022.95 1023.64 1024.23 1024.72 1025.11 1025.39 1025.59 1025.72 1025.78 1025.77 1025.69 1025.54 1025.29 1024.94 1024.49 1023.93 1023.28 1022.56 1021.79 1020.99 1020.17 1019.36 1018.54 1017.72 1016.88 1016.02 1015.12 1014.19 1013.21 1012.20 1011.14 1010.05 1008.92 1007.76 1006.56
1019.97 1020.80 1021.62 1022.40 1023.12 1023.76 1024.30 1024.75 1025.10 1025.37 1025.57 1025.70 1025.76 1025.76 1025.67 1025.49 1025.21 1024.83 1024.34 1023.76 1023.10 1022.38 1021.61 1020.82 1020.01 1019.20 1018.37 1017.52 1016.65 1015.76 1014.83 1013.88 1012.90 1011.91 1010.89 1009.86 1008.81 1007.74
1019.37 1020.19 1021.02 1021.82 1022.57 1023.24 1023.83 1024.32 1024.74 1025.07 1025.33 1025.53 1025.67 1025.74 1025.73 1025.64 1025.45 1025.16 1024.76 1024.26 1023.67 1023.02 1022.30 1021.55 1020.77 1019.96 1019.13 1018.27 1017.39 1016.49 1015.56 1014.62 1013.67 1012.71 1011.75 1010.80 1009.85 1008.91
1018.75 1019.58 1020.42 1021.23 1022.00 1022.70 1023.32 1023.86 1024.32 1024.71 1025.04 1025.30 1025.51 1025.66 1025.73 1025.73 1025.63 1025.44 1025.14 1024.73 1024.24 1023.66 1023.01 1022.31 1021.56 1020.77 1019.95 1019.09 1018.21 1017.30 1016.38 1015.44 1014.51 1013.58 1012.67 1011.79 1010.92 1010.07
1018.15 1019.00 1019.84 1020.67 1021.46 1022.18 1022.83 1023.41 1023.91 1024.34 1024.72 1025.04 1025.32 1025.53 1025.69 1025.77 1025.76 1025.66 1025.46 1025.15 1024.74 1024.24 1023.67 1023.02 1022.31 1021.56 1020.76 1019.92 1019.05 1018.16 1017.25 1016.33 1015.43 1014.54 1013.67 1012.84 1012.04 1011.28
1017.63 1018.47 1019.33 1020.17 1020.98 1021.72 1022.40 1023.00 1023.53 1024.00 1024.42 1024.79 1025.11 1025.38 1025.60 1025.76 1025.83 1025.81 1025.69 1025.47 1025.14 1024.72 1024.21 1023.62 1022.96 1022.25 1021.49 1020.69 1019.86 1019.00 1018.13 1017.26 1016.40 1015.56 1014.76 1013.98 1013.24 1012.54
1017.21 1018.07 1018.93 1019.78 1020.59 1021.35 1022.04 1022.66 1023.21 1023.71 1024.15 1024.55 1024.91 1025.23 1025.49 1025.70 1025.83 1025.88 1025.83 1025.67 1025.41 1025.05 1024.60 1024.06 1023.46 1022.80 1022.09 1021.34 1020.57 1019.78 1018.99 1018.19 1017.41 1016.64 1015.91 1015.20 1014.53 1013.88
1016.96 1017.80 1018.65 1019.49 1020.31 1021.07 1021.76 1022.39 1022.95 1023.46 1023.92 1024.33 1024.72 1025.06 1025.36 1025.60 1025.77 1025.86 1025.85 1025.74 1025.52 1025.21 1024.80 1024.32 1023.77 1023.16 1022.52 1021.85 1021.16 1020.47 1019.77 1019.08 1018.40 1017.74 1017.09 1016.47 1015.87 1015.28
1016.85 1017.66 1018.49 1019.32 1020.11 1020.86 1021.54 1022.16 1022.72 1023.23 1023.69 1024.12 1024.51 1024.87 1025.18 1025.45 1025.64 1025.75 1025.77 1025.69 1025.51 1025.22 1024.85 1024.41 1023.91 1023.36 1022.79 1022.20 1021.62 1021.03 1020.46 1019.89 1019.34 1018.80 1018.27 1017.75 1017.23 1016.70
1016.87 1017.64 1018.42 1019.20 1019.96 1020.68 1021.34 1021.94 1022.49 1022.99 1023.45 1023.88 1024.28 1024.64 1024.97 1025.24 1025.45 1025.58 1025.61 1025.55 1025.38 1025.12 1024.78 1024.37 1023.92 1023.43 1022.93 1022.44 1021.96 1021.50 1021.05 1020.63 1020.22 1019.81 1019.41 1018.99 1018.56 1018.11
1016.95 1017.64 1018.36 1019.09 1019.80 1020.47 1021.10 1021.68 1022.21 1022.70 1023.16 1023.59 1023.99 1024.37 1024.71 1025.00 1025.22 1025.36 1025.41 1025.36 1025.21 1024.97 1024.66 1024.28 1023.88 1023.45 1023.02 1022.62 1022.24 1021.90 1021.58 1021.29 1021.02 1020.75 1020.47 1020.16 1019.82 1019.45
1016.99 1017.61 1018.26 1018.92 1019.57 1020.19 1020.78 1021.33 1021.84 1022.33 1022.79 1023.23 1023.65 1024.04 1024.40 1024.71 1024.95 1025.12 1025.19 1025.16 1025.04 1024.83 1024.54 1024.21 1023.84 1023.48 1023.12 1022.80 1022.52 1022.28 1022.08 1021.91 1021.76 1021.60 1021.43 1021.23 1020.98 1020.68
1016.94 1017.49 1018.06 1018.65 1019.24 1019.81 1020.36 1020.89 1021.39 1021.88 1022.35 1022.81 1023.26 1023.68 1024.06 1024.40 1024.68 1024.87 1024.97 1024.98 1024.89 1024.72 1024.47 1024.18 1023.87 1023.56 1023.28 1023.03 1022.84 1022.69 1022.58 1022.51 1022.45 1022.39 1022.31 1022.19 1022.01 1021.76
1016.76 1017.23 1017.74 1018.27 1018.80 1019.33 1019.85 1020.36 1020.87 1021.36 1021.85 1022.34 1022.82 1023.28 1023.70 1024.08 1024.39 1024.63 1024.77 1024.82 1024.77 1024.64 1024.45 1024.22 1023.96 1023.72 1023.49 1023.32 1023.19 1023.12 1023.09 1023.09 1023.11 1023.12 1023.10 1023.04 1022.91 1022.72
1016.43 1016.86 1017.31 1017.79 1018.28 1018.78 1019.28 1019.78 1020.29 1020.80 1021.32 1021.84 1022.35 1022.85 1023.32 1023.74 1024.10 1024.37 1024.56 1024.66 1024.66 1024.59 1024.45 1024.27 1024.08 1023.90 1023.74 1023.63 1023.57 1023.56 1023.59 1023.65 1023.72 1023.78 1023.80 1023.78 1023.70 1023.54
1016.01 1016.39 1016.81 1017.25 1017.71 1018.19 1018.68 1019.18 1019.70 1020.23 1020.77 1021.32 1021.87 1022.41 1022.92 1023.37 1023.77 1024.09 1024.32 1024.46 1024.52 1024.49 1024.42 1024.30 1024.17 1024.05 1023.96 1023.91 1023.91 1023.96 1024.04 1024.15 1024.26 1024.36 1024.43 1024.44 1024.39 1024.27
Thickness
5525 5522 5519 5515 5511 5508 5504 5501 5500 5507 5515 5514 5508 5504 5499 5495 5492 5490 5489 5488 5485 5483 5481 5479 5478 5477 5476 5475 5475 5474 5475 5475 5476 5477 5478 5479 5481 5484
5515 5513 5509 5506 5503 5498 5494 5491 5488 5488 5494 5499 5496 5493 5489 5487 5484 5482 5481 5480 5479 5476 5474 5472 5471 5470 5469 5469 5469 5468 5468 5469 5470 5471 5472 5473 5475 5477
5507 5504 5500 5497 5493 5490 5486 5483 5480 5478 5481 5487 5485 5483 5481 5479 5478 5476 5474 5473 5472 5469 5466 5465 5464 5463 5462 5462 5462 5462 5463 5464 5464 5465 5466 5467 5469 5471
5499 5495 5492 5488 5484 5481 5478 5475 5473 5470 5470 5474 5476 5474 5472 5470 5469 5468 5467 5466 5464 5462 5460 5458 5457 5456 5456 5455 5456 5456 5457 5458 5459 5459 5461 5462 5464 5465
5490 5486 5483 5479 5476 5473 5470 5467 5465 5463 5462 5462 5465 5464 5463 5462 5461 5461 5459 5458 5457 5456 5454 5452 5452 5451 5450 5450 5450 5450 5451 5452 5453 5454 5456 5457 5458 5459
5481 5477 5474 5470 5467 5464 5461 5459 5457 5456 5455 5454 5455 5455 5455 5453 5452 5452 5453 5452 5451 5450 5447 5446 5446 5445 5446 5445 5445 5445 5446 5447 5448 5450 5451 5452 5453 5454
5472 5468 5464 5460 5457 5454 5451 5450 5448 5447 5447 5446 5447 5447 5447 5445 5443 5442 5442 5443 5444 5443 5441 5441 5441 5441 5441 5440 5439 5440 5441 5442 5443 5443 5445 5447 5448 5449
5463 5459 5455 5452 5448 5445 5443 5440 5438 5437 5438 5437 5438 5437 5438 5435 5433 5432 5431 5433 5436 5436 5433 5435 5435 5435 5434 5434 5433 5433 5434 5436 5437 5437 5438 5440 5441 5444
5453 5450 5447 5443 5440 5438 5436 5433 5431 5429 5427 5427 5428 5428 5427 5425 5424 5424 5423 5422 5424 5425 5425 5429 5429 5429 5428 5428 5428 5428 5429 5430 5431 5432 5433 5434 5435 5437
5444 5441 5437 5435 5432 5429 5428 5427 5426 5424 5422 5420 5420 5420 5418 5417 5415 5414 5415 5416 5418 5418 5416 5420 5423 5422 5423 5423 5423 5423 5424 5425 5425 5426 5428 5430 5431 5433
5435 5431 5428 5426 5424 5421 5420 5420 5420 5419 5416 5414 5413 5412 5411 5410 5408 5408 5409 5409 5413 5415 5410 5410 5414 5416 5418 5419 5419 5418 5419 5420 5421 5422 5424 5426 5427 5428
5426 5423 5419 5417 5416 5413 5412 5412 5412 5412 5410 5410 5409 5408 5407 5406 5403 5402 5401 5401 5403 5406 5405 5403 5405 5405 5411 5414 5413 5413 5413 5415 5416 5417 5419 5420 5422 5424
5416 5414 5412 5409 5407 5406 5404 5404 5403 5402 5403 5403 5403 5402 5402 5400 5399 5397 5395 5394 5394 5396 5396 5394 5396 5397 5398 5403 5407 5407 5407 5408 5410 5412 5413 5414 5415 5417
5407 5405 5404 5401 5400 5398 5397 5396 5395 5394 5395 5395 5395 5395 5394 5393 5392 5391 5389 5388 5387 5388 5389 5388 5388 5389 5391 5395 5399 5401 5402 5403 5404 5406 5407 5409 5410 5411
5398 5396 5395 5394 5392 5392 5390 5389 5388 5388 5387 5388 5388 5388 5386 5385 5385 5385 5385 5384 5384 5385 5384 5384 5383 5384 5385 5387 5390 5393 5396 5398 5399 5401 5403 5404 5406 5408
5390 5389 5388 5386 5385 5384 5383 5383 5382 5381 5380 5380 5380 5380 5379 5379 5379 5379 5380 5380 5381 5382 5381 5380 5379 5379 5381 5383 5385 5388 5390 5392 5395 5397 5398 5400 5402 5403
5381 5381 5380 5379 5379 5378 5377 5376 5375 5374 5373 5373 5374 5374 5373 5373 5374 5373 5373 5374 5375 5376 5377 5377 5376 5377 5377 5379 5382 5385 5387 5390 5392 5393 5395 5397 5399 5400
5372 5373 5372 5371 5371 5370 5369 5369 5369 5368 5367 5367 5367 5367 5367 5368 5368 5368 5369 5370 5370 5371 5372 5372 5373 5376 5378 5379 5378 5382 5385 5387 5389 5390 5392 5394 5396 5397
5364 5365 5364 5364 5363 5363 5362 5362 5362 5362 5361 5361 5361 5362 5362 5363 5364 5365 5366 5366 5367 5368 5368 5368 5369 5372 5377 5380 5379 5378 5380 5383 5386 5388 5390 5391 5393 5394
5356 5356 5356 5356 5356 5356 5356 5356 5356 5356 5356 5356 5356 5357 5358 5359 5360 5361 5363 5363 5364 5365 5366 5367 5367 5368 5371 5373 5374 5376 5377 5380 5383 5386 5387 5389 5391 5392
5349 5348 5349 5349 5349 5349 5350 5350 5350 5350 5351 5351 5352 5353 5354 5355 5356 5358 5360 5360 5361 5363 5364 5365 5365 5366 5368 5371 5374 5376 5377 5378 5380 5382 5385 5387 5390 5393
5341 5342 5342 5343 5343 5344 5344 5345 5345 5346 5347 5348 5349 5350 5351 5352 5353 5355 5357 5358 5359 5360 5362 5363 5365 5367 5370 5373 5374 5375 5376 5378 5379 5381 5383 5385 5387 5390
5334 5335 5336 5337 5338 5338 5339 5340 5341 5343 5344 5345 5346 5347 5348 5350 5351 5352 5354 5355 5357 5359 5361 5363 5365 5367 5369 5371 5373 5374 5375 5378 5380 5382 5383 5384 5386 5388